• Join FlightAware (Why Join?)
  • Login
  • US Flag GB Flag 
11:03 EDT


 

Airport Tracker/Info


-or-


 

Live Flight TrackerFlight Track Log ✈ SWA2436 ✈ 10-Apr-2013 ✈ KMCO - KMSY

Flight Track Log - Related Links

Times and Time Zones

All times are in EDT time to prevent confusion due to time zone crossing. See the SWA2436 flight status page for this flight to view local times or setup timezone preferences in your user account.

Time Position Orientation Groundspeed Altitude Reporting Facility
EDT Latitude Longitude Course Direction KTS MPH feet Rate Location/Type
20:48 28.3500 -81.3167 192° South 219 252 4,300  Level Orlando TRACON
20:49 28.3333 -81.3667 249° West 257 296 8,300 3,660 Climbing Orlando TRACON
20:50 28.3333 -81.4667 270° West 317 365 12,000 3,000 Climbing Orlando TRACON
20:51 28.3356 -81.6167 271° West 320 368 16,000 2,640 Climbing Jacksonville Center
20:52 28.3158 -81.7372 260° West 345 397 18,800 2,820 Climbing Jacksonville Center
20:53 28.2939 -81.8531 258° West 375 432 21,700 2,700 Climbing Jacksonville Center
20:54 28.2719 -81.9806 259° West 390 449 24,300 2,520 Climbing Jacksonville Center
20:55 28.2478 -82.1081 258° West 409 471 26,800 2,400 Climbing Jacksonville Center
20:56 28.2233 -82.2447 259° West 426 490 29,200 2,520 Climbing Jacksonville Center
20:57 28.1989 -82.3744 258° West 431 496 31,900 2,880 Climbing Jacksonville Center
20:58 28.1744 -82.4969 257° West 421 484 35,000 3,000 Climbing Jacksonville Center
20:59 28.1558 -82.6125 260° West 402 463 37,900 1,740 Climbing Jacksonville Center
21:01 28.1192 -82.7997 258° West 352 405 40,000 720 Climbing Miami Center
21:02 28.1000 -82.9094 259° West 352 405 40,000  Level Miami Center
21:03 28.0767 -83.0186 256° West 352 405 40,000  Level Miami Center
21:04 28.0553 -83.1281 258° West 352 405 40,000  Level Miami Center
21:05 28.0547 -83.2361 270° West 352 405 40,000  Level Miami Center
21:06 28.0814 -83.3411 286° West 340 391 40,000  Level Miami Center
21:07 28.1142 -83.4439 290° West 346 398 40,000  Level Miami Center
21:08 28.1425 -83.5492 287° West 351 404 40,000  Level Miami Center
21:09 28.1711 -83.6519 288° West 351 404 40,000  Level Miami Center
21:10 28.2036 -83.7575 289° West 351 404 40,000  Level Miami Center
21:11 28.2339 -83.8631 288° West 351 404 40,000  Level Miami Center
21:11 28.2461 -83.8986 291° West 351 404 40,000  Level Jacksonville Center
21:12 28.2744 -84.0003 288° West 351 404 40,000  Level Jacksonville Center
21:14 28.3340 -84.1095 302° West  Level FlightAware Approximate
21:14 28.3353 -84.2086 302° West 346 398 40,000  Level Jacksonville Center
21:15 28.3633 -84.3103 287° West 346 398 40,000  Level Jacksonville Center
21:16 28.3956 -84.4169 289° West 346 398 40,000  Level Jacksonville Center
21:17 28.4275 -84.5308 288° West 352 405 40,000  Level Jacksonville Center
21:18 28.4575 -84.6350 288° West 347 399 40,000  Level Jacksonville Center
21:19 28.4853 -84.7394 287° West 342 394 40,000  Level Jacksonville Center
21:20 28.5147 -84.8511 287° West 352 405 40,000  Level Jacksonville Center
21:21 28.5486 -84.9511 291° West 347 399 40,000  Level Jacksonville Center
21:22 28.5761 -85.0603 286° West 347 399 40,000  Level Jacksonville Center
21:23 28.6056 -85.1650 288° West 347 399 40,000  Level Jacksonville Center
21:24 28.6372 -85.2697 289° West 347 399 40,000  Level Jacksonville Center
21:25 28.6642 -85.3817 285° West 347 399 40,000  Level Jacksonville Center
21:26 28.6978 -85.4842 291° West 352 405 40,000  Level Jacksonville Center
21:27 28.7247 -85.5892 286° West 352 405 40,000  Level Jacksonville Center
21:28 28.7536 -85.6964 287° West 352 405 40,000  Level Jacksonville Center
21:29 28.7828 -85.7992 288° West 352 405 40,000  Level Jacksonville Center
21:30 28.8094 -85.9042 286° West 347 399 40,000  Level Jacksonville Center
21:31 28.8383 -86.0069 288° West 347 399 40,000  Level Jacksonville Center
21:32 28.8669 -86.1119 287° West 347 399 40,000  Level Jacksonville Center
21:33 28.8956 -86.2172 287° West 347 399 40,000  Level Jacksonville Center
21:34 28.9222 -86.3203 286° West 341 392 40,000  Level Jacksonville Center
21:35 28.9528 -86.4256 288° West 341 392 40,000  Level Jacksonville Center
21:36 28.9811 -86.5333 287° West 346 398 40,000  Level Jacksonville Center
21:37 29.0092 -86.6389 287° West 346 398 40,000  Level Jacksonville Center
21:38 29.0375 -86.7444 287° West 346 398 40,000  Level Jacksonville Center
21:40 29.0844 -86.9256 287° West 344 396 40,000  Level Houston Center
21:41 29.1117 -87.0306 287° West 344 396 40,000 -420 Level Houston Center
21:42 29.1575 -87.1325 297° West 351 404 39,200 -960 Descending Houston Center
21:43 29.2181 -87.2483 301° West 361 415 38,100 -1,020 Descending Houston Center
21:44 29.2717 -87.3472 302° West 364 419 37,200 -960 Descending Houston Center
21:45 29.3119 -87.4533 294° West 365 420 36,200 -960 Descending Houston Center
21:46 29.3375 -87.5678 284° West 371 427 35,300 -1,020 Descending Houston Center
21:47 29.3636 -87.6936 283° West 372 428 34,200 -1,020 Descending Houston Center
21:48 29.3894 -87.8119 284° West 381 438 33,300 -960 Descending Houston Center
21:50 29.4158 -87.9336 284° West 390 449 32,300 -1,020 Descending Houston Center
21:51 29.4436 -88.0583 284° West 400 460 31,300 -960 Descending Houston Center
21:52 29.4700 -88.1836 284° West 404 465 30,400 -840 Descending Houston Center
21:53 29.4975 -88.3111 284° West 411 473 29,600 -960 Descending Houston Center
21:54 29.5297 -88.4608 284° West 427 491 28,500 -780 Descending Houston Center
21:55 29.5594 -88.5972 284° West 439 505 28,000 -300 Descending Houston Center
21:56 29.5897 -88.7353 284° West 443 510 28,000  Level Houston Center
21:57 29.6181 -88.8706 284° West 437 503 28,000  Level Houston Center
21:58 29.6456 -89.0067 283° West 437 503 28,000 -960 Level Houston Center
21:59 29.6803 -89.1706 284° West 437 503 26,100 -2,640 Descending Houston Center
22:00 29.7072 -89.3064 283° West 436 502 22,600 -3,360 Descending Houston Center
22:00 29.7178 -89.3497 286° West 429 494 21,700 -3,000 Descending Houston Center
22:01 29.7347 -89.4342 283° West 415 478 19,500 -3,180 Descending Houston Center
22:01 29.7431 -89.4753 283° West 405 466 18,500 -3,240 Descending Houston Center
22:02 29.7744 -89.5542 295° West 409 471 16,100 -3,300 Descending Houston Center
22:02 29.7953 -89.5878 306° West 407 468 15,200 -3,120 Descending Houston Center
22:03 29.8408 -89.6564 307° West 403 464 13,000 -2,700 Descending Houston Center
22:03 29.8614 -89.6856 309° West 379 436 12,500 -2,400 Descending Houston Center
22:04 29.9033 -89.7478 308° West 375 432 10,500 -2,280 Descending Houston Center
22:04 29.9297 -89.7878 307° West 338 389 10,000 -1,620 Descending Houston Center
22:05 29.9583 -89.8289 309° West 336 387 8,900 -1,920 Descending Houston Center
22:05 29.9847 -89.8694 307° West 299 344 7,900 -1,860 Descending Houston Center
22:06 30.0103 -89.9053 309° West 310 357 7,000 -2,100 Descending Houston Center
22:06 30.0439 -89.9558 308° West 292 336 5,600 -2,100 Descending Houston Center
22:07 30.0606 -89.9803 308° West 298 343 4,900 -1,920 Descending Houston Center
22:07 30.0925 -90.0306 306° West 290 334 3,700 -2,280 Descending Houston Center
22:08 30.1200 -90.0672 311° West 292 336 2,600 -1,560 Descending Houston Center
22:08 30.1364 -90.0961 303° West 278 320 2,300 -600 Descending Houston Center
22:09 30.1661 -90.1361 311° West 282 325 2,000 -300 Descending Houston Center
22:10 30.1761 -90.1642 292° West 228 262 2,000 -120 Level Houston Center
22:10 30.1647 -90.1878 241° Southwest 226 260 1,900  Descending Houston Center
22:11 30.1394 -90.2017 205° Southwest 143 165 2,000  Climbing Houston Center
22:11 30.1244 -90.2089 203° Southwest 183 211 1,900  Descending Houston Center
22:12 30.1044 -90.2150 195° South 131 151 2,000 -300 Climbing Houston Center
22:12 30.0894 -90.2189 193° South 154 177 1,600 -720 Descending Houston Center
22:13 30.0733 -90.2236 194° South 106 122 1,300 -540 Descending Houston Center
22:13 30.0606 -90.2275 195° South 126 145 1,100 -360 Descending Houston Center